This demonstration page uses our WeatherBlox Daily Observations layout. Learn more.

Left ArrowRight Arrow

39.12711, -84.51439

Hourly Observations for September 9, 2021

Temp ( °F °C ) Dew Point ( °F °C ) Humidity (%) Winds ( mph kmh ) Pressure ( in mb ) Visibility ( mi km ) Precip ( " mm )
12:53 am 00:53 Clear 59 15 57 13.9 93 93 Calm 29.86 1011 10 16 0.00 0.00
1:53 am 01:53 Clear 57 13.9 56 13.3 96 96 Calm 29.87 1011 10 16 0.00 0.00
2:53 am 02:53 Clear 54 12.2 54 12.2 100 100 Calm 29.87 1012 10 16 0.00 0.00
3:53 am 03:53 undefined 55 12.8 54 12.2 96 96 ENE 3 6 29.87 1012 N/A 0.00 0.00
4:53 am 04:53 Clear 55 12.8 54 12.2 96 96 Calm 29.88 1012 10 16 0.00 0.00
5:29 am 05:29 Mostly Clear with Mist and Fog 53 11.7 53 11.7 100 100 Calm 29.89 1012 5 8 0.00 0.00
5:53 am 05:53 Clear 52 11.1 52 11.1 100 100 Calm 29.89 1012 10 16 0.00 0.00
6:53 am 06:53 Mostly Clear 54 12.2 53 11.7 97 97 Calm 29.91 1013 10 16 0.00 0.00
7:53 am 07:53 Partly Cloudy 56 13.3 54 12.2 93 93 Calm 29.93 1014 10 16 0.00 0.00
8:53 am 08:53 Mostly Sunny 61 16.1 58 14.4 90 90 Calm 29.95 1014 10 16 0.00 0.00
9:53 am 09:53 Mostly Sunny 70 21.1 58 14.4 66 66 N 5 7 29.96 1014 10 16 0.00 0.00
10:53 am 10:53 Mostly Sunny 72 22.2 54 12.2 53 53 N 8 13 29.97 1015 10 16 0.00 0.00
11:53 am 11:53 Partly Cloudy 74 23.3 53 11.7 48 48 NNE 12 19 29.97 1015 10 16 0.00 0.00
12:53 pm 12:53 Partly Cloudy 76 24.4 55 12.8 48 48 NNW 10 17 29.96 1015 10 16 0.00 0.00
1:53 pm 13:53 Mostly Cloudy 75 23.9 53 11.7 46 46 N 8 13 29.96 1015 10 16 0.00 0.00
2:53 pm 14:53 Partly Cloudy 77 25 52 11.1 42 42 N 12 19 29.95 1014 10 16 0.00 0.00
3:53 pm 15:53 Partly Cloudy 78 25.6 53 11.7 42 42 NNW 8 13 29.95 1014 10 16 0.00 0.00
4:53 pm 16:53 Partly Cloudy 75 23.9 52 11.1 45 45 NNW 6 9 29.95 1014 10 16 0.00 0.00
5:53 pm 17:53 Partly Cloudy 77 25 52 11.1 42 42 NNW 14 22 29.96 1014 10 16 0.00 0.00
6:53 pm 18:53 Mostly Sunny 74 23.3 50 10 43 43 NNW 8 13 29.96 1015 10 16 0.00 0.00
7:53 pm 19:53 Sunny 71 21.7 50 10 47 47 N 9 15 29.98 1015 10 16 0.00 0.00
8:53 pm 20:53 Clear 61 16.1 55 12.8 81 81 Calm 30.00 1016 10 16 0.00 0.00
9:53 pm 21:53 Clear 60 15.6 55 12.8 84 84 Calm 30.01 1016 10 16 0.00 0.00
10:53 pm 22:53 Clear 58 14.4 55 12.8 90 90 Calm 30.03 1017 10 16 0.00 0.00
11:53 pm 23:53 Clear 57 13.9 55 12.8 93 93 Calm 30.04 1017 10 16 0.00 0.00

Powered by AerisWeather